[[{"header":{"parameterUnit":"m.s-1","parameterCategory":1,"la1":30.2992,"la2":30.254,"lo1":-89.0895,"lo2":-89.0443,"dy":0.0025,"dx":0.0025,"nx":19,"ny":19,"refTime":"2026-03-30T09:00:00:Z","depth":0,"parameterNumber":2,"parameterNumberName":"U-component_of_WINDS"},"data":[0,0,0,-6.1417,-6.1419,-6.1468,-6.1467,-6.1584,-6.1585,0,0,0,0,0,0,0,0,0,0,0,-6.1436,-6.1438,-6.1417,-6.1419,-6.1468,-6.1467,-6.1583,-6.1585,0,0,0,0,0,0,0,0,0,0,0,-6.1435,-6.1437,-6.144,-6.142,-6.1468,-6.1467,-6.1583,-6.1527,0,0,0,0,0,0,0,0,0,0,-6.1471,-6.152,-6.1437,-6.144,-6.142,-6.1468,-6.1467,-6.1523,-6.1531,-6.1585,0,-6.1642,0,-6.1616,-6.1596,-6.1597,0,0,0,-6.1394,-6.1514,-6.1498,-6.144,-6.1421,-6.1468,-6.1439,-6.1527,-6.1535,-6.1595,-6.1643,-6.1646,-6.1618,-6.1597,-6.1598,-6.1996,-6.1999,0,0,-6.1392,-6.1462,-6.1493,-6.1505,-6.1501,-6.1437,-6.1441,-6.1531,-6.1588,-6.1643,-6.1648,-6.162,-6.1599,-6.16,-6.1993,-6.1997,0,0,0,-6.1401,-6.1461,-6.1441,-6.1502,-6.1506,-6.1439,-6.1443,-6.1584,-6.1572,-6.1649,-6.1621,-6.1599,-6.1602,-6.199,-6.1994,-6.2211,0,0,0,-6.1398,-6.1466,-6.1441,-6.1485,-6.1506,-6.1546,-6.1495,-6.1566,-6.1573,-6.1621,-6.16,-6.1603,-6.1986,-6.1992,-6.2198,-6.2301,0,0,0,-6.1421,-6.1468,-6.1487,-6.1488,-6.1512,-6.1542,-6.1534,-6.1565,-6.1558,-6.1597,-6.1604,-6.1984,-6.1991,-6.2186,-6.2281,-6.2425,0,0,0,-6.1466,-6.1678,-6.1492,-6.1718,-6.1512,-6.1677,-6.1533,-6.1652,-6.1712,-6.16,-6.1987,-6.1994,-6.2182,-6.2269,-6.2413,-6.2558,-6.2626,0,0,-6.1772,-6.1717,-6.1845,-6.168,-6.1896,-6.1664,-6.1912,-6.1899,-6.1839,-6.1947,-6.1956,-6.2202,-6.228,-6.2423,-6.2983,-6.3037,0,0,0,-6.1966,-6.2058,-6.21,-6.2161,-6.2158,-6.2164,-6.2106,-6.2102,-6.2191,-6.1909,-6.2292,-6.2336,-6.2417,-6.2483,-6.2529,-6.2594,-6.2028,-6.2027,-6.2026,-6.2497,-6.241,-6.2616,-6.2536,-6.2597,-6.2537,-6.2578,-6.2562,-6.2455,-6.2548,-6.2578,-6.2929,-6.3009,-6.3043,-6.3112,-6.2649,-6.265,-6.2651,-6.2652,-6.2936,-6.3053,-6.2909,-6.3057,-6.2964,-6.3087,-6.304,-6.296,-6.3061,-6.2898,-6.2965,-6.2792,-6.3105,-6.316,-6.2667,-6.2664,-6.2662,-6.2661,-6.266,-6.3273,-6.3313,-6.3307,-6.3387,-6.3459,-6.337,-6.3475,-6.3387,-6.3304,-6.3371,-6.3394,-6.339,-6.3374,-6.3389,-6.339,-6.3391,-6.3392,-6.3393,-6.3394,-6.3623,-6.3608,-6.3707,-6.3725,-6.3753,-6.378,-6.3725,-6.3751,-6.3756,-6.3684,-6.3683,-6.3568,-6.3153,-6.3049,-6.3412,-6.3409,-6.3407,-6.3405,-6.3404,-6.4096,-6.3976,-6.4129,-6.4158,-6.4172,-6.4251,-6.4139,-6.4199,-6.4207,-6.4262,-6.4134,-6.3842,-6.3779,-6.3741,-6.3655,-6.4152,-6.4152,-6.4152,-6.4153,-6.4378,-6.4339,-6.4476,-6.4529,-6.457,-6.4486,-6.4663,-6.4624,-6.4565,-6.4565,-6.4481,-6.436,-6.4326,-6.4282,-6.4233,-6.4151,-6.4764,-6.4765,-6.4765,-6.4664,-6.4625,-6.4791,-6.4733,-6.4739,-6.4747,-6.491,-6.4976,-6.4884,-6.4788,-6.4563,-6.4537,-6.434,-6.4281,-6.4176,-6.4102,-6.3949,0,0]},{"header":{"parameterUnit":"m.s-1","parameterCategory":1,"la1":30.2992,"la2":30.254,"lo1":-89.0895,"lo2":-89.0443,"dy":0.0025,"dx":0.0025,"nx":19,"ny":19,"refTime":"2026-03-30T09:00:00:Z","depth":0,"parameterNumber":3,"parameterNumberName":"V-component_of_WINDS"},"data":[0,0,0,0.0612,0.0611,0.053,0.0529,0.0449,0.0449,0,0,0,0,0,0,0,0,0,0,0,0.065,0.065,0.0612,0.0611,0.053,0.0529,0.0449,0.0449,0,0,0,0,0,0,0,0,0,0,0,0.065,0.065,0.065,0.061,0.053,0.0529,0.045,0.0502,0,0,0,0,0,0,0,0,0,0,0.0576,0.0626,0.065,0.065,0.061,0.053,0.0529,0.0504,0.0499,0.0496,0,0.0498,0,0.0473,0.0445,0.0445,0,0,0,0.0599,0.0631,0.0596,0.065,0.0609,0.053,0.0563,0.0501,0.0495,0.0489,0.0497,0.0493,0.0471,0.0445,0.0444,0.0471,0.0472,0,0,0.0604,0.0643,0.06,0.0593,0.0608,0.0566,0.0561,0.0497,0.0507,0.0496,0.0491,0.047,0.0444,0.0444,0.047,0.0471,0,0,0,0.0624,0.0647,0.0613,0.0597,0.0581,0.0564,0.0558,0.051,0.0496,0.049,0.0469,0.0444,0.0443,0.047,0.0471,0.0544,0,0,0,0.0626,0.0659,0.0616,0.0639,0.0583,0.0544,0.0573,0.05,0.0492,0.0469,0.0444,0.0443,0.0469,0.047,0.054,0.0571,0,0,0,0.0651,0.0661,0.0655,0.0641,0.0608,0.0544,0.0526,0.0498,0.048,0.0445,0.0443,0.0468,0.047,0.0537,0.0565,0.0591,0,0,0,0.0688,0.0718,0.0657,0.0683,0.0609,0.0591,0.0526,0.051,0.0488,0.0444,0.0469,0.0471,0.0535,0.0562,0.0588,0.0621,0.0638,0,0,0.0748,0.0726,0.0739,0.0682,0.0685,0.06,0.0612,0.0554,0.0513,0.0487,0.0487,0.0541,0.0565,0.059,0.0719,0.0733,0,0,0,0.0771,0.0781,0.0773,0.0756,0.0714,0.0681,0.0617,0.0596,0.0573,0.0508,0.0556,0.0568,0.0582,0.0596,0.0608,0.0617,0.0479,0.0478,0.0478,0.0911,0.0861,0.0879,0.082,0.0804,0.074,0.0723,0.0684,0.0634,0.0647,0.0639,0.0723,0.0741,0.075,0.0761,0.0651,0.0651,0.0652,0.0652,0.0996,0.1002,0.094,0.0936,0.0883,0.0877,0.0818,0.0784,0.0772,0.0724,0.0733,0.0686,0.0767,0.0774,0.0657,0.0656,0.0655,0.0655,0.0654,0.1082,0.1077,0.1053,0.1026,0.1011,0.095,0.0943,0.0893,0.0846,0.0855,0.0843,0.0842,0.0835,0.0853,0.0854,0.0854,0.0854,0.0854,0.0854,0.1182,0.1153,0.1154,0.1116,0.11,0.1074,0.1013,0.0996,0.0965,0.0929,0.0929,0.088,0.0784,0.0762,0.0859,0.0858,0.0857,0.0857,0.0857,0.1287,0.1256,0.1258,0.1243,0.1196,0.1186,0.1124,0.1095,0.1074,0.1073,0.1023,0.096,0.0934,0.0924,0.0905,0.1033,0.1033,0.1033,0.1033,0.1361,0.1344,0.1336,0.1316,0.1291,0.1237,0.1242,0.1196,0.1143,0.1128,0.1102,0.1073,0.1065,0.1043,0.1031,0.1012,0.1165,0.1165,0.1165,0.1423,0.1402,0.1415,0.1366,0.1327,0.1294,0.1298,0.1278,0.1211,0.117,0.1115,0.1109,0.1061,0.1048,0.1004,0.0986,0.0951,0,0]}]]